﻿測定場所 (Monitoring sites),日付 (Measurement date),時間 (Measurement time),線量率 最大値 (max) μGy/h,線量率 最小値 (min) μGy/h,線量率 平均値 (average) μGy/h,
大田 (Ota),2022-07-03,23:01～24:00,0.0365,0.0320,0.0343,
大田 (Ota),2022-07-03,22:01～23:00,0.0367,0.0313,0.0342,
大田 (Ota),2022-07-03,21:01～22:00,0.0360,0.0314,0.0342,
大田 (Ota),2022-07-03,20:01～21:00,0.0369,0.0318,0.0343,
大田 (Ota),2022-07-03,19:01～20:00,0.0368,0.0316,0.0342,
大田 (Ota),2022-07-03,18:01～19:00,0.0371,0.0322,0.0347,
大田 (Ota),2022-07-03,17:01～18:00,0.0381,0.0326,0.0346,
大田 (Ota),2022-07-03,16:01～17:00,0.0372,0.0326,0.0348,
大田 (Ota),2022-07-03,15:01～16:00,0.0374,0.0324,0.0344,
大田 (Ota),2022-07-03,14:01～15:00,0.0368,0.0322,0.0346,
大田 (Ota),2022-07-03,13:01～14:00,0.0363,0.0322,0.0344,
大田 (Ota),2022-07-03,12:01～13:00,0.0367,0.0319,0.0343,
大田 (Ota),2022-07-03,11:01～12:00,0.0362,0.0309,0.0344,
大田 (Ota),2022-07-03,10:01～11:00,0.0369,0.0322,0.0345,
大田 (Ota),2022-07-03,09:01～10:00,0.0364,0.0320,0.0342,
大田 (Ota),2022-07-03,08:01～09:00,0.0374,0.0327,0.0346,
大田 (Ota),2022-07-03,07:01～08:00,0.0363,0.0322,0.0344,
大田 (Ota),2022-07-03,06:01～07:00,0.0372,0.0319,0.0345,
大田 (Ota),2022-07-03,05:01～06:00,0.0362,0.0322,0.0343,
大田 (Ota),2022-07-03,04:01～05:00,0.0371,0.0325,0.0343,
大田 (Ota),2022-07-03,03:01～04:00,0.0367,0.0318,0.0341,
大田 (Ota),2022-07-03,02:01～03:00,0.0360,0.0320,0.0339,
大田 (Ota),2022-07-03,01:01～02:00,0.0360,0.0319,0.0340,
大田 (Ota),2022-07-03,00:01～01:00,0.0361,0.0321,0.0339,
大田 (Ota),2022-07-02,23:01～24:00,0.0359,0.0320,0.0340,
大田 (Ota),2022-07-02,22:01～23:00,0.0363,0.0319,0.0343,
大田 (Ota),2022-07-02,21:01～22:00,0.0370,0.0318,0.0341,
大田 (Ota),2022-07-02,20:01～21:00,0.0360,0.0318,0.0341,
大田 (Ota),2022-07-02,19:01～20:00,0.0367,0.0319,0.0342,
大田 (Ota),2022-07-02,18:01～19:00,0.0366,0.0319,0.0340,
大田 (Ota),2022-07-02,17:01～18:00,0.0362,0.0311,0.0340,
大田 (Ota),2022-07-02,16:01～17:00,0.0366,0.0315,0.0341,
大田 (Ota),2022-07-02,15:01～16:00,0.0364,0.0318,0.0341,
大田 (Ota),2022-07-02,14:01～15:00,0.0369,0.0317,0.0340,
大田 (Ota),2022-07-02,13:01～14:00,0.0366,0.0312,0.0339,
大田 (Ota),2022-07-02,12:01～13:00,0.0363,0.0315,0.0342,
大田 (Ota),2022-07-02,11:01～12:00,0.0370,0.0324,0.0343,
大田 (Ota),2022-07-02,10:01～11:00,0.0378,0.0321,0.0345,
大田 (Ota),2022-07-02,09:01～10:00,0.0364,0.0322,0.0344,
大田 (Ota),2022-07-02,08:01～09:00,0.0363,0.0325,0.0346,
大田 (Ota),2022-07-02,07:01～08:00,0.0372,0.0319,0.0344,
大田 (Ota),2022-07-02,06:01～07:00,0.0377,0.0327,0.0344,
大田 (Ota),2022-07-02,05:01～06:00,0.0369,0.0318,0.0343,
大田 (Ota),2022-07-02,04:01～05:00,0.0360,0.0310,0.0340,
大田 (Ota),2022-07-02,03:01～04:00,0.0363,0.0306,0.0339,
大田 (Ota),2022-07-02,02:01～03:00,0.0359,0.0308,0.0338,
大田 (Ota),2022-07-02,01:01～02:00,0.0363,0.0318,0.0338,
大田 (Ota),2022-07-02,00:01～01:00,0.0368,0.0313,0.0337,
大田 (Ota),2022-07-01,23:01～24:00,0.0360,0.0318,0.0339,
大田 (Ota),2022-07-01,22:01～23:00,0.0365,0.0319,0.0339,
大田 (Ota),2022-07-01,21:01～22:00,0.0360,0.0317,0.0337,
大田 (Ota),2022-07-01,20:01～21:00,0.0357,0.0321,0.0340,
大田 (Ota),2022-07-01,19:01～20:00,0.0364,0.0308,0.0341,
大田 (Ota),2022-07-01,18:01～19:00,0.0356,0.0311,0.0339,
大田 (Ota),2022-07-01,17:01～18:00,0.0359,0.0322,0.0341,
大田 (Ota),2022-07-01,16:01～17:00,0.0367,0.0314,0.0340,
大田 (Ota),2022-07-01,15:01～16:00,0.0362,0.0321,0.0339,
大田 (Ota),2022-07-01,14:01～15:00,0.0365,0.0319,0.0340,
大田 (Ota),2022-07-01,13:01～14:00,0.0373,0.0317,0.0344,
大田 (Ota),2022-07-01,12:01～13:00,0.0351,0.0311,0.0338,
大田 (Ota),2022-07-01,11:01～12:00,0.0369,0.0315,0.0340,
大田 (Ota),2022-07-01,10:01～11:00,0.0367,0.0324,0.0344,
大田 (Ota),2022-07-01,09:01～10:00,0.0364,0.0315,0.0342,
大田 (Ota),2022-07-01,08:01～09:00,0.0370,0.0319,0.0345,
大田 (Ota),2022-07-01,07:01～08:00,0.0362,0.0301,0.0340,
大田 (Ota),2022-07-01,06:01～07:00,0.0363,0.0315,0.0339,
大田 (Ota),2022-07-01,05:01～06:00,0.0367,0.0308,0.0336,
大田 (Ota),2022-07-01,04:01～05:00,0.0353,0.0304,0.0336,
大田 (Ota),2022-07-01,03:01～04:00,0.0358,0.0310,0.0337,
大田 (Ota),2022-07-01,02:01～03:00,0.0367,0.0320,0.0339,
大田 (Ota),2022-07-01,01:01～02:00,0.0358,0.0318,0.0337,
大田 (Ota),2022-07-01,00:01～01:00,0.0362,0.0319,0.0342,
大田 (Ota),2022-06-30,23:01～24:00,0.0367,0.0320,0.0341,
大田 (Ota),2022-06-30,22:01～23:00,0.0370,0.0317,0.0341,
大田 (Ota),2022-06-30,21:01～22:00,0.0361,0.0320,0.0340,
大田 (Ota),2022-06-30,20:01～21:00,0.0361,0.0323,0.0346,
大田 (Ota),2022-06-30,19:01～20:00,0.0369,0.0325,0.0346,
大田 (Ota),2022-06-30,18:01～19:00,0.0369,0.0320,0.0344,
大田 (Ota),2022-06-30,17:01～18:00,0.0367,0.0323,0.0343,
大田 (Ota),2022-06-30,16:01～17:00,0.0368,0.0318,0.0343,
大田 (Ota),2022-06-30,15:01～16:00,0.0358,0.0320,0.0341,
大田 (Ota),2022-06-30,14:01～15:00,0.0363,0.0308,0.0343,
大田 (Ota),2022-06-30,13:01～14:00,0.0362,0.0320,0.0341,
大田 (Ota),2022-06-30,12:01～13:00,0.0375,0.0315,0.0340,
大田 (Ota),2022-06-30,11:01～12:00,0.0364,0.0315,0.0342,
大田 (Ota),2022-06-30,10:01～11:00,0.0358,0.0319,0.0342,
大田 (Ota),2022-06-30,09:01～10:00,0.0368,0.0315,0.0342,
大田 (Ota),2022-06-30,08:01～09:00,0.0366,0.0308,0.0341,
大田 (Ota),2022-06-30,07:01～08:00,0.0365,0.0317,0.0342,
大田 (Ota),2022-06-30,06:01～07:00,0.0363,0.0315,0.0341,
大田 (Ota),2022-06-30,05:01～06:00,0.0363,0.0310,0.0338,
大田 (Ota),2022-06-30,04:01～05:00,0.0355,0.0304,0.0337,
大田 (Ota),2022-06-30,03:01～04:00,0.0360,0.0305,0.0338,
大田 (Ota),2022-06-30,02:01～03:00,0.0356,0.0318,0.0336,
大田 (Ota),2022-06-30,01:01～02:00,0.0359,0.0311,0.0335,
大田 (Ota),2022-06-30,00:01～01:00,0.0356,0.0294,0.0332,
大田 (Ota),2022-06-29,23:01～24:00,0.0359,0.0301,0.0335,
大田 (Ota),2022-06-29,22:01～23:00,0.0357,0.0316,0.0336,
大田 (Ota),2022-06-29,21:01～22:00,0.0357,0.0314,0.0336,
大田 (Ota),2022-06-29,20:01～21:00,0.0360,0.0314,0.0337,
大田 (Ota),2022-06-29,19:01～20:00,0.0363,0.0318,0.0338,
大田 (Ota),2022-06-29,18:01～19:00,0.0361,0.0307,0.0339,
大田 (Ota),2022-06-29,17:01～18:00,0.0352,0.0318,0.0337,
大田 (Ota),2022-06-29,16:01～17:00,0.0363,0.0311,0.0340,
大田 (Ota),2022-06-29,15:01～16:00,0.0360,0.0312,0.0338,
大田 (Ota),2022-06-29,14:01～15:00,0.0369,0.0320,0.0338,
大田 (Ota),2022-06-29,13:01～14:00,0.0360,0.0314,0.0338,
大田 (Ota),2022-06-29,12:01～13:00,0.0358,0.0316,0.0338,
大田 (Ota),2022-06-29,11:01～12:00,0.0357,0.0318,0.0340,
大田 (Ota),2022-06-29,10:01～11:00,0.0361,0.0313,0.0338,
大田 (Ota),2022-06-29,09:01～10:00,0.0354,0.0311,0.0335,
大田 (Ota),2022-06-29,08:01～09:00,0.0361,0.0308,0.0336,
大田 (Ota),2022-06-29,07:01～08:00,0.0358,0.0315,0.0340,
大田 (Ota),2022-06-29,06:01～07:00,0.0361,0.0311,0.0339,
大田 (Ota),2022-06-29,05:01～06:00,0.0360,0.0311,0.0338,
大田 (Ota),2022-06-29,04:01～05:00,0.0356,0.0311,0.0336,
大田 (Ota),2022-06-29,03:01～04:00,0.0361,0.0318,0.0337,
大田 (Ota),2022-06-29,02:01～03:00,0.0362,0.0311,0.0337,
大田 (Ota),2022-06-29,01:01～02:00,0.0358,0.0317,0.0338,
大田 (Ota),2022-06-29,00:01～01:00,0.0362,0.0319,0.0337,
大田 (Ota),2022-06-28,23:01～24:00,0.0352,0.0312,0.0333,
大田 (Ota),2022-06-28,22:01～23:00,0.0366,0.0315,0.0334,
大田 (Ota),2022-06-28,21:01～22:00,0.0352,0.0310,0.0334,
大田 (Ota),2022-06-28,20:01～21:00,0.0356,0.0316,0.0334,
大田 (Ota),2022-06-28,19:01～20:00,0.0360,0.0318,0.0338,
大田 (Ota),2022-06-28,18:01～19:00,0.0364,0.0317,0.0337,
大田 (Ota),2022-06-28,17:01～18:00,0.0362,0.0317,0.0339,
大田 (Ota),2022-06-28,16:01～17:00,0.0357,0.0313,0.0337,
大田 (Ota),2022-06-28,15:01～16:00,0.0356,0.0308,0.0336,
大田 (Ota),2022-06-28,14:01～15:00,0.0359,0.0308,0.0336,
大田 (Ota),2022-06-28,13:01～14:00,0.0360,0.0311,0.0338,
大田 (Ota),2022-06-28,12:01～13:00,0.0382,0.0319,0.0342,
大田 (Ota),2022-06-28,11:01～12:00,0.0366,0.0321,0.0341,
大田 (Ota),2022-06-28,10:01～11:00,0.0358,0.0316,0.0339,
大田 (Ota),2022-06-28,09:01～10:00,0.0367,0.0320,0.0340,
大田 (Ota),2022-06-28,08:01～09:00,0.0366,0.0310,0.0337,
大田 (Ota),2022-06-28,07:01～08:00,0.0365,0.0323,0.0339,
大田 (Ota),2022-06-28,06:01～07:00,0.0362,0.0312,0.0339,
大田 (Ota),2022-06-28,05:01～06:00,0.0370,0.0314,0.0338,
大田 (Ota),2022-06-28,04:01～05:00,0.0364,0.0315,0.0336,
大田 (Ota),2022-06-28,03:01～04:00,0.0354,0.0311,0.0335,
大田 (Ota),2022-06-28,02:01～03:00,0.0363,0.0315,0.0335,
大田 (Ota),2022-06-28,01:01～02:00,0.0360,0.0315,0.0337,
大田 (Ota),2022-06-28,00:01～01:00,0.0357,0.0313,0.0334,
大田 (Ota),2022-06-27,23:01～24:00,0.0361,0.0314,0.0334,
大田 (Ota),2022-06-27,22:01～23:00,0.0359,0.0312,0.0335,
大田 (Ota),2022-06-27,21:01～22:00,0.0374,0.0308,0.0337,
大田 (Ota),2022-06-27,20:01～21:00,0.0365,0.0308,0.0333,
大田 (Ota),2022-06-27,19:01～20:00,0.0363,0.0310,0.0339,
大田 (Ota),2022-06-27,18:01～19:00,0.0356,0.0317,0.0339,
大田 (Ota),2022-06-27,17:01～18:00,0.0364,0.0318,0.0338,
大田 (Ota),2022-06-27,16:01～17:00,0.0366,0.0315,0.0343,
大田 (Ota),2022-06-27,15:01～16:00,0.0363,0.0311,0.0337,
大田 (Ota),2022-06-27,14:01～15:00,0.0362,0.0323,0.0339,
大田 (Ota),2022-06-27,13:01～14:00,0.0362,0.0315,0.0340,
大田 (Ota),2022-06-27,12:01～13:00,0.0363,0.0307,0.0336,
大田 (Ota),2022-06-27,11:01～12:00,0.0373,0.0304,0.0340,
大田 (Ota),2022-06-27,10:01～11:00,0.0360,0.0314,0.0336,
大田 (Ota),2022-06-27,09:01～10:00,0.0372,0.0318,0.0337,
大田 (Ota),2022-06-27,08:01～09:00,0.0363,0.0320,0.0338,
大田 (Ota),2022-06-27,07:01～08:00,0.0374,0.0321,0.0338,
大田 (Ota),2022-06-27,06:01～07:00,0.0373,0.0323,0.0341,
大田 (Ota),2022-06-27,05:01～06:00,0.0356,0.0311,0.0337,
大田 (Ota),2022-06-27,04:01～05:00,0.0358,0.0318,0.0338,
大田 (Ota),2022-06-27,03:01～04:00,0.0356,0.0312,0.0334,
大田 (Ota),2022-06-27,02:01～03:00,0.0360,0.0304,0.0334,
大田 (Ota),2022-06-27,01:01～02:00,0.0358,0.0311,0.0333,
大田 (Ota),2022-06-27,00:01～01:00,0.0351,0.0318,0.0336,
